Home > Weather > Volta Redonda > Past weeks

Flag for Brazil Past Weather in Volta Redonda, Rio de Janeiro, Brazil — Yesterday and Last 2 Weeks

Now
75 °F

Clear.


Feels Like: 77 °F
Forecast: N/A
Wind: 7 mph from South

Location: Galeao

Current Time: Jul 26, 2016 at 6:58:42 PM

Latest Report: Jul 26, 2016 at 6:00 PM


Visibility: 10 mi

Pressure: 29.98 "Hg

Humidity: 65%

Dew Point: 63 °F

Location of Volta RedondaLocation

Past Weather in Volta Redonda — Graph

°F

Volta Redonda Temperature Yesterday

Maximum temperature yesterday: 75 °F (at 12:00 PM)
Minimum temperature yesterday: 63 °F (at 4:00 AM)
Average temperature yesterday: 69 °F

High & Low Weather Summary for the Past Weeks

 TemperatureHumidityPressure
High91 °F (Jul 12, 3:00 PM)94% (Jul 12, 4:00 AM)30.24 "Hg (Jul 12, 4:00 AM)
Low57 °F (Jul 19, 7:00 AM)28% (Jul 15, 4:00 PM)29.71 "Hg (Jul 16, 2:00 PM)
Average70 °F72%30.06 "Hg
* Reported Jul 11 5:00 PM — Jul 26 5:00 PM, Volta Redonda, Weather by CustomWeather, © 2016

Note: Actual official high and low records may vary slightly from our data, if they occured in-between our weather recording intervals... More about our weather records

Advertising

Volta Redonda Weather History for the Previous 24 Hours

Scroll right to see more
 ConditionsComfort  
Time TempWeatherWind HumidityBarometerVisibility
5:00 PM
Tue, Jul 26
77 °FClear.10 mph57%29.95 "Hg10 mi
4:00 PM81 °FSunny.7 mph51%29.98 "Hg10 mi
3:00 PM81 °FSunny.8 mph51%29.98 "Hg10 mi
2:00 PM81 °FSunny.7 mph48%30.01 "Hg10 mi
1:00 PM79 °FClear.7 mph58%30.01 "Hg4 mi
12:00 PM79 °FHaze.5 mph54%30.07 "Hg3 mi
11:00 AM72 °FScattered clouds.6 mph73%30.09 "Hg3 mi
10:00 AM70 °FScattered clouds.6 mph78%30.09 "Hg3 mi
9:00 AM68 °FFog.6 mph83%30.12 "Hg2 mi
8:00 AM68 °FFog.7 mph83%30.09 "Hg2 mi
7:00 AM66 °FFog.5 mph88%30.09 "Hg2 mi
6:00 AM63 °FFog.6 mph94%30.12 "Hg2 mi
5:00 AM63 °FFog.6 mph94%30.09 "Hg2 mi
4:00 AM64 °FFog.5 mph94%30.09 "Hg2 mi
3:00 AM64 °FFog.5 mph94%30.09 "Hg2 mi
2:00 AM66 °FFog.3 mph88%30.12 "Hg3 mi
1:00 AM66 °FPassing clouds.No wind88%30.12 "Hg4 mi
12:00 AM66 °FPassing clouds.2 mph88%30.12 "Hg4 mi
11:00 PM
Mon, Jul 25
68 °FPassing clouds.5 mph83%30.12 "Hg6 mi
10:00 PM68 °FPassing clouds.6 mph83%30.15 "Hg6 mi
9:00 PM68 °FPassing clouds.6 mph83%30.12 "Hg6 mi
8:00 PM68 °FPassing clouds.6 mph83%30.12 "Hg5 mi
7:00 PM70 °FPassing clouds.7 mph78%30.12 "Hg5 mi
6:00 PM70 °FPassing clouds.8 mph78%30.12 "Hg5 mi
Weather by CustomWeather, © 2016

See weather overviewHow to use our weather pages